When you browse on this site, cookies collect data to enhance your experience and personalize the content and advertising you see.
Visit our Privacy Policy to learn more. By continuing to use the site, you agree to this use of cookies and data.

Stündliche Wetter Zavarykino

Heute, 11 Juli, Samstag

Zeit Temperatur Niederschläge Wind Luftdruck Luftfeuchtigkeit
00:00 +15°C° 0 mm 1 m/S 749 mmHg 78%
01:00 +15°C° 0 mm 1 m/S 749 mmHg 79%
02:00 +14°C° 0 mm 1 m/S 750 mmHg 80%
03:00 +14°C° 0 mm 1 m/S 750 mmHg 79%
04:00 +15°C° 0 mm 1 m/S 750 mmHg 80%
05:00 +15°C° 0 mm 2 m/S 750 mmHg 82%
06:00 +15°C° 0 mm 2 m/S 750 mmHg 83%
07:00 +17°C° 0 mm 2 m/S 750 mmHg 80%
08:00 +19°C° 0 mm 3 m/S 750 mmHg 76%
09:00 +20°C° 0 mm 3 m/S 750 mmHg 73%
10:00 +21°C° 0 mm 3 m/S 750 mmHg 70%
11:00 +22°C° 0 mm 4 m/S 750 mmHg 67%
12:00 +23°C° 0 mm 4 m/S 750 mmHg 64%
13:00 +25°C° 0 mm 4 m/S 750 mmHg 64%
14:00 +25°C° 0 mm 4 m/S 750 mmHg 64%
15:00 +25°C° 0 mm 3 m/S 750 mmHg 64%
16:00 +25°C° 0 mm 3 m/S 749 mmHg 67%
17:00 +25°C° 0 mm 3 m/S 749 mmHg 70%
18:00 +25°C° 0 mm 3 m/S 749 mmHg 73%
19:00 +23°C° 0 mm 2 m/S 749 mmHg 76%
20:00 +21°C° 0 mm 2 m/S 749 mmHg 79%
21:00 +19°C° 0 mm 2 m/S 749 mmHg 83%
22:00 +19°C° 0 mm 2 m/S 749 mmHg 83%
23:00 +18°C° 0 mm 2 m/S 748 mmHg 84%

Morgen, 12 Juli, Sonntag

Zeit Temperatur Niederschläge Wind Luftdruck Luftfeuchtigkeit
00:00 +18°C° 0 mm 2 m/S 748 mmHg 84%
01:00 +17°C° 0 mm 2 m/S 748 mmHg 84%
02:00 +17°C° 0 mm 2 m/S 748 mmHg 84%
03:00 +16°C° 0 mm 2 m/S 748 mmHg 85%
04:00 +17°C° 0 mm 2 m/S 748 mmHg 84%
05:00 +17°C° 0 mm 2 m/S 747 mmHg 84%
06:00 +17°C° 0 mm 2 m/S 747 mmHg 84%
07:00 +19°C° 0 mm 2 m/S 747 mmHg 80%
08:00 +21°C° 0 mm 2 m/S 747 mmHg 75%
09:00 +23°C° 0 mm 2 m/S 748 mmHg 71%
10:00 +24°C° 0 mm 2 m/S 747 mmHg 67%
11:00 +25°C° 0 mm 2 m/S 747 mmHg 64%
12:00 +26°C° 0 mm 2 m/S 747 mmHg 61%
13:00 +26°C° 0 mm 3 m/S 746 mmHg 61%
14:00 +26°C° 0 mm 3 m/S 746 mmHg 61%
15:00 +27°C° 0 mm 3 m/S 746 mmHg 61%
16:00 +27°C° 0 mm 2 m/S 746 mmHg 63%
17:00 +26°C° 0 mm 2 m/S 745 mmHg 64%
18:00 +26°C° 0 mm 1 m/S 745 mmHg 66%
19:00 +25°C° 0 mm 1 m/S 745 mmHg 70%
20:00 +23°C° 0 mm 1 m/S 744 mmHg 73%
21:00 +21°C° 0 mm 1 m/S 744 mmHg 77%
22:00 +21°C° 0 mm 1 m/S 744 mmHg 79%
23:00 +20°C° 0 mm 1 m/S 744 mmHg 81%

übermorgen, 13 Juli, Montag

Zeit Temperatur Niederschläge Wind Luftdruck Luftfeuchtigkeit
00:00 +19°C° 0 mm 1 m/S 744 mmHg 82%
01:00 +19°C° 0 mm 1 m/S 743 mmHg 84%
02:00 +18°C° 0 mm 2 m/S 743 mmHg 85%
03:00 +17°C° 0 mm 2 m/S 742 mmHg 87%
04:00 +18°C° 0 mm 2 m/S 742 mmHg 87%
05:00 +18°C° 0 mm 2 m/S 742 mmHg 87%
06:00 +18°C° 0 mm 2 m/S 741 mmHg 88%
07:00 +20°C° 0 mm 2 m/S 741 mmHg 83%
08:00 +21°C° 0 mm 2 m/S 741 mmHg 79%
09:00 +24°C° 0 mm 2 m/S 741 mmHg 74%
10:00 +25°C° 0 mm 2 m/S 741 mmHg 71%
11:00 +26°C° 0 mm 2 m/S 740 mmHg 68%
12:00 +26°C° 0 mm 2 m/S 740 mmHg 65%
13:00 +27°C° 0.2 mm 2 m/S 740 mmHg 67%
14:00 +27°C° 0.2 mm 2 m/S 739 mmHg 69%
15:00 +27°C° 0.2 mm 2 m/S 739 mmHg 71%
16:00 +26°C° 1.5 mm 2 m/S 739 mmHg 76%
17:00 +25°C° 1.5 mm 3 m/S 738 mmHg 82%
18:00 +24°C° 1.5 mm 3 m/S 738 mmHg 87%
19:00 +23°C° 0.5 mm 2 m/S 738 mmHg 88%
20:00 +21°C° 0.5 mm 2 m/S 738 mmHg 90%
21:00 +21°C° 0.5 mm 1 m/S 738 mmHg 91%
22:00 +21°C° 0.2 mm 1 m/S 738 mmHg 92%
23:00 +20°C° 0.2 mm 1 m/S 738 mmHg 93%

14 Juli, Dienstag

Zeit Temperatur Niederschläge Wind Luftdruck Luftfeuchtigkeit
00:00 +20°C° 0.2 mm 1 m/S 738 mmHg 94%
01:00 +20°C° 0.1 mm 1 m/S 738 mmHg 95%
02:00 +20°C° 0.1 mm 1 m/S 737 mmHg 96%
03:00 +19°C° 0.1 mm 1 m/S 737 mmHg 96%
04:00 +20°C° 0.2 mm 1 m/S 737 mmHg 96%
05:00 +20°C° 0.2 mm 1 m/S 737 mmHg 96%
06:00 +20°C° 0.2 mm 1 m/S 737 mmHg 96%
07:00 +21°C° 0.1 mm 1 m/S 737 mmHg 93%
08:00 +22°C° 0.1 mm 1 m/S 737 mmHg 90%
09:00 +22°C° 0.1 mm 1 m/S 738 mmHg 87%
10:00 +23°C° 0.7 mm 2 m/S 738 mmHg 87%
11:00 +22°C° 0.7 mm 3 m/S 738 mmHg 87%
12:00 +22°C° 0.7 mm 4 m/S 738 mmHg 87%
13:00 +21°C° 0.4 mm 5 m/S 738 mmHg 88%
14:00 +21°C° 0.4 mm 6 m/S 738 mmHg 88%
15:00 +20°C° 0.4 mm 6 m/S 738 mmHg 89%
16:00 +20°C° 0 mm 6 m/S 738 mmHg 89%
17:00 +18°C° 0 mm 7 m/S 738 mmHg 90%
18:00 +17°C° 0 mm 7 m/S 738 mmHg 90%
19:00 +17°C° 0 mm 7 m/S 738 mmHg 89%
20:00 +17°C° 0 mm 7 m/S 738 mmHg 89%
21:00 +16°C° 0 mm 7 m/S 738 mmHg 89%
22:00 +16°C° 0.5 mm 6 m/S 738 mmHg 91%
23:00 +16°C° 0.5 mm 6 m/S 738 mmHg 93%

15 Juli, Mittwoch

Zeit Temperatur Niederschläge Wind Luftdruck Luftfeuchtigkeit
00:00 +15°C° 0.5 mm 6 m/S 738 mmHg 95%
01:00 +15°C° 1.3 mm 6 m/S 738 mmHg 95%
02:00 +15°C° 1.3 mm 6 m/S 737 mmHg 95%
03:00 +15°C° 1.3 mm 5 m/S 737 mmHg 95%
04:00 +15°C° 2.4 mm 6 m/S 737 mmHg 96%
05:00 +15°C° 2.4 mm 7 m/S 737 mmHg 96%
06:00 +14°C° 2.4 mm 7 m/S 737 mmHg 96%
07:00 +14°C° 2.9 mm 7 m/S 737 mmHg 96%
08:00 +13°C° 2.9 mm 8 m/S 737 mmHg 96%
09:00 +13°C° 2.9 mm 8 m/S 737 mmHg 95%
10:00 +13°C° 2.4 mm 8 m/S 737 mmHg 95%
11:00 +13°C° 2.4 mm 8 m/S 737 mmHg 95%
12:00 +14°C° 2.4 mm 7 m/S 737 mmHg 95%
13:00 +13°C° 1.4 mm 8 m/S 738 mmHg 94%
14:00 +13°C° 1.4 mm 9 m/S 738 mmHg 94%
15:00 +12°C° 1.4 mm 9 m/S 738 mmHg 93%
16:00 +12°C° 0.4 mm 9 m/S 739 mmHg 93%
17:00 +12°C° 0.4 mm 9 m/S 739 mmHg 93%
18:00 +11°C° 0.4 mm 9 m/S 739 mmHg 92%
19:00 +11°C° 0.1 mm 9 m/S 739 mmHg 91%
20:00 +11°C° 0.1 mm 8 m/S 739 mmHg 90%
21:00 +11°C° 0.1 mm 8 m/S 739 mmHg 89%
22:00 +11°C° 0 mm 8 m/S 739 mmHg 89%
23:00 +11°C° 0 mm 7 m/S 739 mmHg 88%

16 Juli, Donnerstag

Zeit Temperatur Niederschläge Wind Luftdruck Luftfeuchtigkeit
00:00 +11°C° 0 mm 7 m/S 739 mmHg 87%
01:00 +11°C° 0 mm 7 m/S 739 mmHg 87%
02:00 +11°C° 0 mm 7 m/S 739 mmHg 86%
03:00 +11°C° 0 mm 7 m/S 739 mmHg 86%
04:00 +11°C° 0.1 mm 6 m/S 739 mmHg 87%
05:00 +11°C° 0.1 mm 6 m/S 739 mmHg 88%
06:00 +12°C° 0.1 mm 5 m/S 739 mmHg 89%
07:00 +12°C° 0 mm 5 m/S 739 mmHg 88%
08:00 +13°C° 0 mm 5 m/S 739 mmHg 87%
09:00 +14°C° 0 mm 5 m/S 739 mmHg 86%
10:00 +15°C° 0 mm 5 m/S 739 mmHg 83%
11:00 +16°C° 0 mm 5 m/S 740 mmHg 81%
12:00 +17°C° 0 mm 5 m/S 740 mmHg 78%
13:00 +17°C° 0.1 mm 5 m/S 740 mmHg 77%
14:00 +19°C° 0.1 mm 4 m/S 740 mmHg 76%
15:00 +19°C° 0.1 mm 4 m/S 740 mmHg 75%
16:00 +19°C° 0.1 mm 4 m/S 740 mmHg 78%
17:00 +18°C° 0.1 mm 3 m/S 740 mmHg 82%
18:00 +18°C° 0.1 mm 2 m/S 739 mmHg 85%
19:00 +17°C° 0 mm 2 m/S 740 mmHg 86%
20:00 +16°C° 0 mm 1 m/S 740 mmHg 88%
21:00 +15°C° 0 mm 1 m/S 740 mmHg 89%
22:00 +15°C° 0 mm 1 m/S 740 mmHg 89%
23:00 +14°C° 0 mm 2 m/S 740 mmHg 89%
Mehr zeigen